,,,PA_Meas_PMT16A,,PR_Meas_QMR101_102,,RH_Meas_QMH101,,SR_Meas_QMS101,,TA_Meas_QMH101,,GenWind,,GenWind,
date,time,status,PA,status,PR,status,RH,status,SR,status,TA,status,DirAvg,status,SpdAvg,
2009-01-27, 00:00:04,VALID,1003.26,VALID,0,VALID,94.8041,VALID,0,VALID,23.5673,VALID,90,VALID,0,
2009-01-27, 00:01:04,VALID,1003.24,VALID,0,VALID,94.8422,VALID,0,VALID,23.5673,VALID,90,VALID,0,
2009-01-27, 00:02:04,VALID,1003.25,VALID,0,VALID,94.8804,VALID,0,VALID,23.5673,VALID,90,VALID,0,
2009-01-27, 00:03:04,VALID,1003.22,VALID,0,VALID,94.9109,VALID,0,VALID,23.5868,VALID,90,VALID,0,
2009-01-27, 00:04:04,VALID,1003.19,VALID,0,VALID,94.888,VALID,0,VALID,23.6062,VALID,90,VALID,0,
2009-01-27, 00:05:04,VALID,1003.18,VALID,0,VALID,94.9262,VALID,0,VALID,23.6257,VALID,90,VALID,0,
2009-01-27, 00:06:04,VALID,1003.18,VALID,0,VALID,94.9567,VALID,0,VALID,23.6434,VALID,90,VALID,0,
2009-01-27, 00:07:04,VALID,1003.17,VALID,0,VALID,95.0177,VALID,0,VALID,23.7035,VALID,90,VALID,0,
2009-01-27, 00:08:04,VALID,1003.14,VALID,0,VALID,94.9796,VALID,0,VALID,23.7637,VALID,90,VALID,0,
2009-01-27, 00:09:04,VALID,1003.14,VALID,0,VALID,94.9567,VALID,0,VALID,23.7425,VALID,90,VALID,0,
2009-01-27, 00:10:04,VALID,1003.09,VALID,0,VALID,94.9338,VALID,0,VALID,23.7425,VALID,90,VALID,0,
2009-01-27, 00:11:04,VALID,1003.09,VALID,0,VALID,94.9338,VALID,0,VALID,23.7619,VALID,90,VALID,0,
2009-01-27, 00:12:04,VALID,1003.05,VALID,0,VALID,94.9033,VALID,0,VALID,23.7619,VALID,90,VALID,0,
2009-01-27, 00:13:04,VALID,1003.03,VALID,0,VALID,94.9109,VALID,0,VALID,23.7814,VALID,70,VALID,0.0398437,
2009-01-27, 00:14:04,VALID,1003.03,VALID,0,VALID,94.9567,VALID,0,VALID,23.7814,VALID,302,VALID,0.185547,
2009-01-27, 00:15:04,VALID,1003.02,VALID,0,VALID,94.9262,VALID,0,VALID,23.8009,VALID,303,VALID,0.391016,
2009-01-27, 00:16:04,VALID,1002.97,VALID,0,VALID,94.8804,VALID,0,VALID,23.8009,VALID,303,VALID,0.267188,
2009-01-27, 00:17:04,VALID,1003.01,VALID,0,VALID,94.8499,VALID,0,VALID,23.8009,VALID,304,VALID,0.414453,
2009-01-27, 00:18:04,VALID,1003,VALID,0,VALID,94.8346,VALID,0,VALID,23.7814,VALID,305,VALID,0.422266,
2009-01-27, 00:19:04,VALID,1003,VALID,0,VALID,94.8651,VALID,0,VALID,23.7814,VALID,306,VALID,0.35,
2009-01-27, 00:20:04,VALID,1002.98,VALID,0,VALID,94.8804,VALID,0,VALID,23.8009,VALID,306,VALID,0.377344,
2009-01-27, 00:21:04,VALID,1003.04,VALID,0,VALID,94.8728,VALID,0,VALID,23.8009,VALID,306,VALID,0.490625,
2009-01-27, 00:22:04,VALID,1002.99,VALID,0,VALID,94.8728,VALID,0,VALID,23.8009,VALID,306,VALID,0.402344,
2009-01-27, 00:23:04,VALID,1002.99,VALID,0,VALID,94.8804,VALID,0,VALID,23.8009,VALID,306,VALID,0.411328,
2009-01-27, 00:24:04,VALID,1002.99,VALID,0,VALID,94.827,VALID,0,VALID,23.7814,VALID,306,VALID,0.250391,
2009-01-27, 00:25:04,VALID,1002.96,VALID,0,VALID,94.8422,VALID,0,VALID,23.7796,VALID,306,VALID,0.318359,
2009-01-27, 00:26:04,VALID,1002.95,VALID,0,VALID,94.8956,VALID,0,VALID,23.7796,VALID,306,VALID,0.274219,
2009-01-27, 00:27:04,VALID,1002.95,VALID,0,VALID,94.8651,VALID,0,VALID,23.7796,VALID,306,VALID,0.250781,
2009-01-27, 00:28:04,VALID,1002.9,VALID,0,VALID,94.9033,VALID,0,VALID,23.8203,VALID,306,VALID,0.355078,
2009-01-27, 00:29:04,VALID,1002.88,VALID,0,VALID,94.8575,VALID,0,VALID,23.7796,VALID,306,VALID,0.00585938,
2009-01-27, 00:30:04,VALID,1002.86,VALID,0,VALID,94.9033,VALID,0,VALID,23.7796,VALID,306,VALID,0,
2009-01-27, 00:31:04,VALID,1002.87,VALID,0,VALID,94.8804,VALID,0,VALID,23.8009,VALID,306,VALID,0,
2009-01-27, 00:32:04,VALID,1002.84,VALID,0,VALID,94.8651,VALID,0,VALID,23.8203,VALID,306,VALID,0,
2009-01-27, 00:33:04,VALID,1002.85,VALID,0,VALID,94.8499,VALID,0,VALID,23.7991,VALID,306,VALID,0,
2009-01-27, 00:34:04,VALID,1002.85,VALID,0,VALID,94.827,VALID,0,VALID,23.8009,VALID,306,VALID,0,
2009-01-27, 00:35:04,VALID,1002.83,VALID,0,VALID,94.8346,VALID,0,VALID,23.7814,VALID,306,VALID,0,
2009-01-27, 00:36:04,VALID,1002.84,VALID,0,VALID,94.8651,VALID,0,VALID,23.7796,VALID,306,VALID,0,
2009-01-27, 00:37:04,VALID,1002.82,VALID,0,VALID,94.8499,VALID,0,VALID,23.7814,VALID,306,VALID,0,
2009-01-27, 00:38:04,VALID,1002.8,VALID,0,VALID,94.8194,VALID,0,VALID,23.7814,VALID,306,VALID,0,
2009-01-27, 00:39:04,VALID,1002.81,VALID,0,VALID,94.8422,VALID,0,VALID,23.8009,VALID,342,VALID,0,
2009-01-27, 00:40:04,VALID,1002.81,VALID,0,VALID,94.8346,VALID,0,VALID,23.7601,VALID,342,VALID,0,
2009-01-27, 00:41:04,VALID,1002.81,VALID,0,VALID,94.8346,VALID,0,VALID,23.7601,VALID,342,VALID,0,
2009-01-27, 00:42:04,VALID,1002.82,VALID,0,VALID,94.8194,VALID,0,VALID,23.7619,VALID,342,VALID,0,
2009-01-27, 00:43:04,VALID,1002.84,VALID,0,VALID,94.8041,VALID,0,VALID,23.7425,VALID,342,VALID,0,
2009-01-27, 00:44:04,VALID,1002.82,VALID,0,VALID,94.8194,VALID,0,VALID,23.723,VALID,342,VALID,0,
2009-01-27, 00:45:04,VALID,1002.84,VALID,0,VALID,94.8041,VALID,0,VALID,23.7017,VALID,342,VALID,0,
2009-01-27, 00:46:04,VALID,1002.85,VALID,0,VALID,94.8346,VALID,0,VALID,23.7035,VALID,342,VALID,0,
2009-01-27, 00:47:04,VALID,1002.84,VALID,0,VALID,94.827,VALID,0,VALID,23.6841,VALID,342,VALID,0,
2009-01-27, 00:48:04,VALID,1002.8,VALID,0,VALID,94.7583,VALID,0,VALID,23.6434,VALID,342,VALID,0,
2009-01-27, 00:49:04,VALID,1002.8,VALID,0,VALID,94.7888,VALID,0,VALID,23.6452,VALID,342,VALID,0,
2009-01-27, 00:50:04,VALID,1002.78,VALID,0,VALID,94.8194,VALID,0,VALID,23.6434,VALID,342,VALID,0,
2009-01-27, 00:51:04,VALID,1002.77,VALID,0,VALID,94.8728,VALID,0,VALID,23.6434,VALID,342,VALID,0,
2009-01-27, 00:52:04,VALID,1002.75,VALID,0,VALID,94.888,VALID,0.100563,VALID,23.6434,VALID,342,VALID,0,
2009-01-27, 00:53:04,VALID,1002.77,VALID,0,VALID,94.8728,VALID,0.100563,VALID,23.6434,VALID,342,VALID,0,
2009-01-27, 00:54:04,VALID,1002.78,VALID,0,VALID,94.8346,VALID,0,VALID,23.6452,VALID,342,VALID,0,
2009-01-27, 00:55:04,VALID,1002.74,VALID,0,VALID,94.8728,VALID,0.100563,VALID,23.6434,VALID,342,VALID,0,
2009-01-27, 00:56:04,VALID,1002.73,VALID,0,VALID,94.9414,VALID,0,VALID,23.6434,VALID,342,VALID,0,
2009-01-27, 00:57:04,VALID,1002.74,VALID,0,VALID,94.9262,VALID,0.100563,VALID,23.6434,VALID,342,VALID,0,
2009-01-27, 00:58:04,VALID,1002.71,VALID,0,VALID,94.9262,VALID,0,VALID,23.6434,VALID,342,VALID,0,
2009-01-27, 00:59:04,VALID,1002.7,VALID,0,VALID,94.8728,VALID,0.100563,VALID,23.6646,VALID,342,VALID,0,
2009-01-27, 01:00:04,VALID,1002.7,VALID,0,VALID,94.8575,VALID,0,VALID,23.6044,VALID,342,VALID,0,
2009-01-27, 01:01:04,VALID,1002.67,VALID,0,VALID,94.7888,VALID,0,VALID,23.5655,VALID,342,VALID,0,
2009-01-27, 01:02:04,VALID,1002.67,VALID,0,VALID,94.7736,VALID,0,VALID,23.5673,VALID,342,VALID,0,
2009-01-27, 01:03:04,VALID,1002.65,VALID,0,VALID,94.8041,VALID,0,VALID,23.5478,VALID,342,VALID,0,
2009-01-27, 01:04:04,VALID,1002.64,VALID,0,VALID,94.827,VALID,0,VALID,23.5266,VALID,342,VALID,0,
2009-01-27, 01:05:04,VALID,1002.63,VALID,0,VALID,94.8651,VALID,0.100563,VALID,23.5266,VALID,342,VALID,0,
2009-01-27, 01:06:04,VALID,1002.61,VALID,0,VALID,94.8804,VALID,0,VALID,23.5266,VALID,342,VALID,0,
2009-01-27, 01:07:04,VALID,1002.62,VALID,0,VALID,94.888,VALID,0,VALID,23.5266,VALID,342,VALID,0,
2009-01-27, 01:08:04,VALID,1002.59,VALID,0,VALID,94.9872,VALID,0,VALID,23.5655,VALID,342,VALID,0,
2009-01-27, 01:09:04,VALID,1002.58,VALID,0,VALID,95.0101,VALID,0,VALID,23.5868,VALID,342,VALID,0.409766,
2009-01-27, 01:10:04,VALID,1002.56,VALID,0,VALID,94.9796,VALID,0,VALID,23.6062,VALID,342,VALID,0.463672,
2009-01-27, 01:11:04,VALID,1002.57,VALID,0,VALID,94.949,VALID,0,VALID,23.5655,VALID,353,VALID,0.738281,
2009-01-27, 01:12:04,VALID,1002.59,VALID,0,VALID,94.9872,VALID,0,VALID,23.5637,VALID,354,VALID,0.743359,
2009-01-27, 01:13:04,VALID,1002.64,VALID,0,VALID,94.9719,VALID,0,VALID,23.6062,VALID,355,VALID,0.671875,
2009-01-27, 01:14:04,VALID,1002.62,VALID,0,VALID,94.8956,VALID,0,VALID,23.5868,VALID,355,VALID,0.5125,
2009-01-27, 01:15:04,VALID,1002.63,VALID,0,VALID,94.8804,VALID,0,VALID,23.5266,VALID,355,VALID,0.526563,
2009-01-27, 01:16:04,VALID,1002.61,VALID,0,VALID,94.8575,VALID,0,VALID,23.5478,VALID,353,VALID,0.560156,
2009-01-27, 01:17:04,VALID,1002.61,VALID,0,VALID,94.8499,VALID,0,VALID,23.4877,VALID,353,VALID,0.505859,
2009-01-27, 01:18:04,VALID,1002.58,VALID,0,VALID,94.827,VALID,0.100563,VALID,23.4682,VALID,353,VALID,0.454297,
2009-01-27, 01:19:04,VALID,1002.56,VALID,0,VALID,94.8346,VALID,0,VALID,23.47,VALID,353,VALID,0.455859,
2009-01-27, 01:20:04,VALID,1002.56,VALID,0,VALID,94.8728,VALID,0.100563,VALID,23.4487,VALID,353,VALID,0.426172,
2009-01-27, 01:21:04,VALID,1002.5,VALID,0,VALID,94.888,VALID,0,VALID,23.4505,VALID,353,VALID,0.374609,
2009-01-27, 01:22:04,VALID,1002.5,VALID,0,VALID,94.8651,VALID,0,VALID,23.4311,VALID,353,VALID,0.397266,
2009-01-27, 01:23:04,VALID,1002.47,VALID,0,VALID,94.9033,VALID,0.100563,VALID,23.4311,VALID,353,VALID,0.330859,
2009-01-27, 01:24:04,VALID,1002.47,VALID,0,VALID,94.9109,VALID,0.100563,VALID,23.4098,VALID,353,VALID,0.313281,
2009-01-27, 01:25:04,VALID,1002.46,VALID,0,VALID,94.9109,VALID,0,VALID,23.4116,VALID,353,VALID,0.192578,
2009-01-27, 01:26:04,VALID,1002.43,VALID,0,VALID,94.9033,VALID,0,VALID,23.4116,VALID,353,VALID,0.418359,
2009-01-27, 01:27:04,VALID,1002.46,VALID,0,VALID,94.9567,VALID,0,VALID,23.4098,VALID,355,VALID,0.409766,
2009-01-27, 01:28:04,VALID,1002.4,VALID,0,VALID,94.9262,VALID,0,VALID,23.4116,VALID,355,VALID,0.397656,
2009-01-27, 01:29:04,VALID,1002.38,VALID,0,VALID,94.9033,VALID,0,VALID,23.4134,VALID,355,VALID,0.347656,
2009-01-27, 01:30:04,VALID,1002.34,VALID,0,VALID,94.8956,VALID,0,VALID,23.3727,VALID,355,VALID,0.361328,
2009-01-27, 01:31:04,VALID,1002.32,VALID,0,VALID,94.9262,VALID,0,VALID,23.3727,VALID,355,VALID,0.364844,
2009-01-27, 01:32:04,VALID,1002.32,VALID,0,VALID,94.9414,VALID,0,VALID,23.3921,VALID,355,VALID,0.3375,
2009-01-27, 01:33:04,VALID,1002.31,VALID,0,VALID,94.949,VALID,0,VALID,23.3939,VALID,354,VALID,0.232812,
2009-01-27, 01:34:04,VALID,1002.31,VALID,0,VALID,94.9109,VALID,0,VALID,23.3727,VALID,355,VALID,0.00429688,
2009-01-27, 01:35:04,VALID,1002.3,VALID,0,VALID,94.9567,VALID,0,VALID,23.3532,VALID,354,VALID,0.226953,
2009-01-27, 01:36:04,VALID,1002.3,VALID,0,VALID,95.0024,VALID,0,VALID,23.3727,VALID,355,VALID,0.297656,
2009-01-27, 01:37:04,VALID,1002.3,VALID,0,VALID,95.0101,VALID,0,VALID,23.3921,VALID,355,VALID,0.433984,
2009-01-27, 01:38:04,VALID,1002.3,VALID,0,VALID,94.949,VALID,0,VALID,23.3727,VALID,355,VALID,0.327734,
2009-01-27, 01:39:04,VALID,1002.33,VALID,0,VALID,94.8651,VALID,0,VALID,23.3337,VALID,355,VALID,0.316016,
2009-01-27, 01:40:04,VALID,1002.31,VALID,0,VALID,94.888,VALID,0,VALID,23.332,VALID,355,VALID,0.382422,
2009-01-27, 01:41:04,VALID,1002.34,VALID,0,VALID,94.8804,VALID,0.100563,VALID,23.3125,VALID,355,VALID,0.295312,
2009-01-27, 01:42:04,VALID,1002.29,VALID,0,VALID,94.888,VALID,0,VALID,23.3125,VALID,355,VALID,0.485938,
2009-01-27, 01:43:04,VALID,1002.29,VALID,0,VALID,94.8956,VALID,0,VALID,23.2931,VALID,355,VALID,0.428516,
2009-01-27, 01:44:04,VALID,1002.26,VALID,0,VALID,94.9033,VALID,0.100563,VALID,23.2931,VALID,355,VALID,0.30625,
2009-01-27, 01:45:04,VALID,1002.26,VALID,0,VALID,94.9338,VALID,0.100563,VALID,23.2931,VALID,355,VALID,0.277344,
2009-01-27, 01:46:04,VALID,1002.25,VALID,0,VALID,94.9643,VALID,0.100563,VALID,23.3143,VALID,355,VALID,0.11875,
2009-01-27, 01:47:04,VALID,1002.26,VALID,0,VALID,94.9567,VALID,0.100563,VALID,23.2736,VALID,355,VALID,0.196875,
2009-01-27, 01:48:04,VALID,1002.22,VALID,0,VALID,94.9567,VALID,0.100563,VALID,23.3125,VALID,355,VALID,0.453516,
2009-01-27, 01:49:04,VALID,1002.24,VALID,0,VALID,94.9796,VALID,0,VALID,23.2931,VALID,355,VALID,0.364062,
2009-01-27, 01:50:04,VALID,1002.23,VALID,0,VALID,94.9948,VALID,0.100563,VALID,23.3125,VALID,355,VALID,0.505469,
2009-01-27, 01:51:04,VALID,1002.22,VALID,0,VALID,94.9643,VALID,0,VALID,23.2718,VALID,355,VALID,0.429688,
2009-01-27, 01:52:04,VALID,1002.19,VALID,0,VALID,94.9872,VALID,0.100563,VALID,23.2736,VALID,355,VALID,0.417578,
2009-01-27, 01:53:04,VALID,1002.2,VALID,0,VALID,95.0101,VALID,0.100563,VALID,23.2931,VALID,355,VALID,0.203125,
2009-01-27, 01:54:04,VALID,1002.19,VALID,0,VALID,95.1169,VALID,0.100563,VALID,23.3125,VALID,355,VALID,0.16875,
2009-01-27, 01:55:04,VALID,1002.18,VALID,0,VALID,95.0558,VALID,0.100563,VALID,23.332,VALID,355,VALID,0.0347656,
2009-01-27, 01:56:04,VALID,1002.19,VALID,0,VALID,95.1093,VALID,0.100563,VALID,23.3514,VALID,355,VALID,0.101563,
2009-01-27, 01:57:04,VALID,1002.14,VALID,0,VALID,95.0864,VALID,0.100563,VALID,23.3709,VALID,355,VALID,0.05,
2009-01-27, 01:58:04,VALID,1002.16,VALID,0,VALID,95.0177,VALID,0.100563,VALID,23.3497,VALID,355,VALID,0.344141,
2009-01-27, 01:59:04,VALID,1002.14,VALID,0,VALID,95.0177,VALID,0.100563,VALID,23.3514,VALID,355,VALID,0.413672,
2009-01-27, 02:00:04,VALID,1002.14,VALID,0,VALID,95.0253,VALID,0.100563,VALID,23.3514,VALID,355,VALID,0.395312,
2009-01-27, 02:01:04,VALID,1002.13,VALID,0,VALID,94.9872,VALID,0.100563,VALID,23.3514,VALID,355,VALID,0.489844,
2009-01-27, 02:02:04,VALID,1002.08,VALID,0,VALID,94.9796,VALID,0.100563,VALID,23.332,VALID,355,VALID,0.494922,
2009-01-27, 02:03:04,VALID,1002.07,VALID,0,VALID,94.9643,VALID,0.100563,VALID,23.3337,VALID,355,VALID,0.524219,
2009-01-27, 02:04:04,VALID,1002.05,VALID,0,VALID,94.9338,VALID,0.100563,VALID,23.2931,VALID,355,VALID,0.443359,
2009-01-27, 02:05:04,VALID,1002.01,VALID,0,VALID,94.9414,VALID,0.100563,VALID,23.2736,VALID,355,VALID,0.230469,
2009-01-27, 02:06:04,VALID,1001.99,VALID,0,VALID,94.9567,VALID,0.100563,VALID,23.2736,VALID,355,VALID,0.308203,
2009-01-27, 02:07:04,VALID,1002.01,VALID,0,VALID,94.9643,VALID,0.100563,VALID,23.2329,VALID,355,VALID,0.120703,
2009-01-27, 02:08:04,VALID,1001.99,VALID,0,VALID,95.0253,VALID,0.100563,VALID,23.2736,VALID,355,VALID,0,
2009-01-27, 02:09:04,VALID,1001.98,VALID,0,VALID,95.033,VALID,0.100563,VALID,23.3125,VALID,355,VALID,0,
2009-01-27, 02:10:04,VALID,1002,VALID,0,VALID,95.0406,VALID,0,VALID,23.2948,VALID,355,VALID,0,
2009-01-27, 02:11:04,VALID,1001.99,VALID,0,VALID,95.0635,VALID,0,VALID,23.3143,VALID,355,VALID,0.117969,
2009-01-27, 02:12:04,VALID,1001.97,VALID,0,VALID,95.033,VALID,0,VALID,23.3143,VALID,355,VALID,0,
2009-01-27, 02:13:04,VALID,1001.97,VALID,0,VALID,95.0177,VALID,0,VALID,23.2931,VALID,355,VALID,0.000390625,
2009-01-27, 02:14:05,VALID,1001.99,VALID,0,VALID,95.0253,VALID,0.100563,VALID,23.3143,VALID,355,VALID,0.510156,
2009-01-27, 02:15:05,VALID,1001.98,VALID,0,VALID,95.0177,VALID,0,VALID,23.3143,VALID,6,VALID,0.647266,
2009-01-27, 02:16:05,VALID,1001.97,VALID,0,VALID,95.0406,VALID,0,VALID,23.3337,VALID,12,VALID,0.6125,
2009-01-27, 02:17:05,VALID,1001.97,VALID,0,VALID,95.0635,VALID,0,VALID,23.3143,VALID,12,VALID,0.347266,
2009-01-27, 02:18:05,VALID,1001.96,VALID,0,VALID,95.0711,VALID,0,VALID,23.3143,VALID,10,VALID,0.338281,
2009-01-27, 02:19:05,VALID,1001.97,VALID,0,VALID,94.9948,VALID,0,VALID,23.2931,VALID,8,VALID,0,
2009-01-27, 02:20:05,VALID,1001.92,VALID,0,VALID,94.9414,VALID,0,VALID,23.2754,VALID,8,VALID,0,
2009-01-27, 02:21:05,VALID,1001.9,VALID,0,VALID,94.9567,VALID,0,VALID,23.2771,VALID,8,VALID,0,
2009-01-27, 02:22:05,VALID,1001.9,VALID,0,VALID,95.0101,VALID,0,VALID,23.2771,VALID,8,VALID,0,
2009-01-27, 02:23:05,VALID,1001.89,VALID,0,VALID,94.9872,VALID,0,VALID,23.2364,VALID,8,VALID,0,
2009-01-27, 02:24:05,VALID,1001.88,VALID,0,VALID,95.0177,VALID,0,VALID,23.2364,VALID,8,VALID,0,
2009-01-27, 02:25:05,VALID,1001.87,VALID,0,VALID,95.0635,VALID,0,VALID,23.2559,VALID,8,VALID,0,
2009-01-27, 02:26:05,VALID,1001.86,VALID,0,VALID,95.0406,VALID,0,VALID,23.2559,VALID,8,VALID,0,
2009-01-27, 02:27:05,VALID,1001.84,VALID,0,VALID,95.0177,VALID,0,VALID,23.2559,VALID,8,VALID,0,
2009-01-27, 02:28:05,VALID,1001.88,VALID,0,VALID,95.0406,VALID,0,VALID,23.2559,VALID,8,VALID,0,
2009-01-27, 02:29:05,VALID,1001.86,VALID,0,VALID,94.9796,VALID,0,VALID,23.217,VALID,8,VALID,0,
2009-01-27, 02:30:05,VALID,1001.86,VALID,0,VALID,94.9796,VALID,0,VALID,23.217,VALID,8,VALID,0,
2009-01-27, 02:31:05,VALID,1001.85,VALID,0,VALID,95.0635,VALID,0,VALID,23.2382,VALID,8,VALID,0.454297,
2009-01-27, 02:32:05,VALID,1001.84,VALID,0,VALID,95.033,VALID,0,VALID,23.217,VALID,8,VALID,0.349609,
2009-01-27, 02:33:05,VALID,1001.85,VALID,0,VALID,95.0482,VALID,0,VALID,23.217,VALID,8,VALID,0.481641,
2009-01-27, 02:34:05,VALID,1001.84,VALID,0,VALID,95.0787,VALID,0,VALID,23.1975,VALID,8,VALID,0.358203,
2009-01-27, 02:35:05,VALID,1001.84,VALID,0,VALID,95.094,VALID,0,VALID,23.1957,VALID,8,VALID,0.334766,
2009-01-27, 02:36:05,VALID,1001.81,VALID,0,VALID,95.0787,VALID,0,VALID,23.217,VALID,8,VALID,0.260547,
2009-01-27, 02:37:05,VALID,1001.83,VALID,0,VALID,95.1398,VALID,0,VALID,23.2364,VALID,8,VALID,0.275391,
2009-01-27, 02:38:05,VALID,1001.83,VALID,0,VALID,95.1093,VALID,0,VALID,23.2364,VALID,8,VALID,0.105078,
2009-01-27, 02:39:05,VALID,1001.81,VALID,0,VALID,95.094,VALID,0,VALID,23.2577,VALID,8,VALID,0,
2009-01-27, 02:40:05,VALID,1001.83,VALID,0,VALID,95.1016,VALID,0,VALID,23.2559,VALID,8,VALID,0,
2009-01-27, 02:41:05,VALID,1001.82,VALID,0,VALID,95.0253,VALID,0,VALID,23.2364,VALID,8,VALID,0.442187,
2009-01-27, 02:42:05,VALID,1001.83,VALID,0,VALID,94.9567,VALID,0,VALID,23.178,VALID,8,VALID,0.552344,
2009-01-27, 02:43:05,VALID,1001.78,VALID,0,VALID,94.9796,VALID,0,VALID,23.1586,VALID,8,VALID,0.428906,
2009-01-27, 02:44:05,VALID,1001.82,VALID,0,VALID,95.0024,VALID,0,VALID,23.1391,VALID,8,VALID,0.401563,
2009-01-27, 02:45:05,VALID,1001.81,VALID,0,VALID,95.0711,VALID,0,VALID,23.1586,VALID,7,VALID,0.582812,
2009-01-27, 02:46:05,VALID,1001.8,VALID,0,VALID,95.1321,VALID,0,VALID,23.178,VALID,351,VALID,0.745313,
2009-01-27, 02:47:05,VALID,1001.82,VALID,0,VALID,95.1627,VALID,0,VALID,23.217,VALID,353,VALID,0.709766,
2009-01-27, 02:48:05,VALID,1001.8,VALID,0,VALID,95.1779,VALID,0,VALID,23.217,VALID,347,VALID,0.71875,
2009-01-27, 02:49:05,VALID,1001.79,VALID,0,VALID,95.2008,VALID,0,VALID,23.2559,VALID,353,VALID,0.591016,
2009-01-27, 02:50:05,VALID,1001.83,VALID,0,VALID,95.1779,VALID,0,VALID,23.2754,VALID,353,VALID,0.517187,
2009-01-27, 02:51:05,VALID,1001.81,VALID,0,VALID,95.1627,VALID,0,VALID,23.2754,VALID,341,VALID,0.453516,
2009-01-27, 02:52:05,VALID,1001.84,VALID,0,VALID,95.0864,VALID,0,VALID,23.2559,VALID,341,VALID,0.433594,
2009-01-27, 02:53:05,VALID,1001.84,VALID,0,VALID,95.0711,VALID,0,VALID,23.217,VALID,341,VALID,0.428125,
2009-01-27, 02:54:05,VALID,1001.82,VALID,0,VALID,95.0635,VALID,0,VALID,23.2382,VALID,341,VALID,0.466406,
2009-01-27, 02:55:05,VALID,1001.82,VALID,0,VALID,95.1016,VALID,0,VALID,23.217,VALID,341,VALID,0.519922,
2009-01-27, 02:56:05,VALID,1001.82,VALID,0,VALID,95.1093,VALID,0,VALID,23.2152,VALID,341,VALID,0.536328,
2009-01-27, 02:57:05,VALID,1001.82,VALID,0,VALID,95.094,VALID,0,VALID,23.1957,VALID,341,VALID,0.486328,
2009-01-27, 02:58:05,VALID,1001.76,VALID,0,VALID,95.1398,VALID,0,VALID,23.217,VALID,341,VALID,0.323047,
2009-01-27, 02:59:05,VALID,1001.79,VALID,0,VALID,95.2084,VALID,0,VALID,23.2347,VALID,341,VALID,0.413281,
2009-01-27, 03:00:05,VALID,1001.75,VALID,0,VALID,95.2313,VALID,0,VALID,23.2948,VALID,341,VALID,0.1625,
2009-01-27, 03:01:05,VALID,1001.75,VALID,0,VALID,95.2237,VALID,0,VALID,23.3143,VALID,341,VALID,0,
2009-01-27, 03:02:05,VALID,1001.72,VALID,0,VALID,95.1779,VALID,0,VALID,23.3143,VALID,341,VALID,0,
2009-01-27, 03:03:05,VALID,1001.69,VALID,0,VALID,95.2161,VALID,0,VALID,23.3532,VALID,341,VALID,0.211719,
2009-01-27, 03:04:05,VALID,1001.69,VALID,0,VALID,95.1932,VALID,0,VALID,23.3532,VALID,341,VALID,0.0148437,
2009-01-27, 03:05:05,VALID,1001.7,VALID,0,VALID,95.1932,VALID,0,VALID,23.3727,VALID,341,VALID,0.379687,
2009-01-27, 03:06:05,VALID,1001.71,VALID,0,VALID,95.1855,VALID,0,VALID,23.4134,VALID,341,VALID,0.220703,
2009-01-27, 03:07:05,VALID,1001.7,VALID,0,VALID,95.1321,VALID,0,VALID,23.3727,VALID,341,VALID,0.433984,
2009-01-27, 03:08:05,VALID,1001.69,VALID,0,VALID,95.0711,VALID,0,VALID,23.3532,VALID,341,VALID,0.346094,
2009-01-27, 03:09:05,VALID,1001.71,VALID,0,VALID,95.0864,VALID,0,VALID,23.3125,VALID,341,VALID,0.226953,
2009-01-27, 03:10:05,VALID,1001.69,VALID,0,VALID,95.0711,VALID,0,VALID,23.3337,VALID,341,VALID,0.435547,
2009-01-27, 03:11:05,VALID,1001.72,VALID,0,VALID,95.0253,VALID,0,VALID,23.3143,VALID,341,VALID,0.444141,
2009-01-27, 03:12:05,VALID,1001.7,VALID,0,VALID,95.0711,VALID,0,VALID,23.2948,VALID,341,VALID,0.426172,
2009-01-27, 03:13:05,VALID,1001.71,VALID,0,VALID,95.0711,VALID,0,VALID,23.3143,VALID,341,VALID,0.0816406,
2009-01-27, 03:14:05,VALID,1001.73,VALID,0,VALID,94.9796,VALID,0,VALID,23.2754,VALID,341,VALID,0.373437,
2009-01-27, 03:15:05,VALID,1001.73,VALID,0,VALID,95.0864,VALID,0,VALID,23.2948,VALID,341,VALID,0.478125,
2009-01-27, 03:16:05,VALID,1001.74,VALID,0,VALID,95.1703,VALID,0,VALID,23.3337,VALID,345,VALID,0.559766,
2009-01-27, 03:17:05,VALID,1001.76,VALID,0,VALID,95.1932,VALID,0,VALID,23.3727,VALID,345,VALID,0.291406,
2009-01-27, 03:18:05,VALID,1001.76,VALID,0,VALID,95.1398,VALID,0,VALID,23.3921,VALID,345,VALID,0.0304688,
2009-01-27, 03:19:05,VALID,1001.79,VALID,0,VALID,95.0635,VALID,0,VALID,23.3921,VALID,345,VALID,0.546484,
2009-01-27, 03:20:05,VALID,1001.76,VALID,0,VALID,95.2008,VALID,0,VALID,23.4134,VALID,301,VALID,0.590625,
2009-01-27, 03:21:05,VALID,1001.78,VALID,0,VALID,95.1779,VALID,0,VALID,23.47,VALID,294,VALID,0.269531,
2009-01-27, 03:22:05,VALID,1001.79,VALID,0,VALID,95.1474,VALID,0,VALID,23.47,VALID,295,VALID,0.239453,
2009-01-27, 03:23:05,VALID,1001.79,VALID,0,VALID,95.2466,VALID,0,VALID,23.5478,VALID,302,VALID,0.255469,
2009-01-27, 03:24:05,VALID,1001.79,VALID,0,VALID,95.1321,VALID,0,VALID,23.5673,VALID,351,VALID,0.506641,
2009-01-27, 03:25:05,VALID,1001.81,VALID,0,VALID,95.1855,VALID,0,VALID,23.6452,VALID,344,VALID,0.426172,
2009-01-27, 03:26:05,VALID,1001.82,VALID,0,VALID,95.1398,VALID,0,VALID,23.7053,VALID,344,VALID,0.512109,
2009-01-27, 03:27:05,VALID,1001.8,VALID,0,VALID,95.033,VALID,0,VALID,23.6841,VALID,344,VALID,0.532422,
2009-01-27, 03:28:05,VALID,1001.8,VALID,0,VALID,94.8804,VALID,0,VALID,23.6664,VALID,344,VALID,0.523828,
2009-01-27, 03:29:05,VALID,1001.79,VALID,0,VALID,94.8117,VALID,0,VALID,23.6257,VALID,345,VALID,0.56875,
2009-01-27, 03:30:05,VALID,1001.8,VALID,0,VALID,94.8194,VALID,0,VALID,23.6257,VALID,348,VALID,0.283594,
2009-01-27, 03:31:05,VALID,1001.78,VALID,0,VALID,94.8041,VALID,0,VALID,23.6469,VALID,348,VALID,0,
2009-01-27, 03:32:05,VALID,1001.78,VALID,0,VALID,94.7736,VALID,0,VALID,23.6257,VALID,348,VALID,0.173438,
2009-01-27, 03:33:05,VALID,1001.79,VALID,0,VALID,94.7049,VALID,0,VALID,23.608,VALID,348,VALID,0.0742188,
2009-01-27, 03:34:05,VALID,1001.79,VALID,0,VALID,94.621,VALID,0,VALID,23.5673,VALID,348,VALID,0.435937,
2009-01-27, 03:35:05,VALID,1001.78,VALID,0,VALID,94.6973,VALID,0,VALID,23.5885,VALID,348,VALID,0.237891,
2009-01-27, 03:36:05,VALID,1001.82,VALID,0,VALID,94.7125,VALID,0,VALID,23.5868,VALID,348,VALID,0.496875,
2009-01-27, 03:37:05,VALID,1001.79,VALID,0,VALID,94.7049,VALID,0,VALID,23.5868,VALID,349,VALID,0.334375,
2009-01-27, 03:38:05,VALID,1001.78,VALID,0,VALID,94.7354,VALID,0,VALID,23.6062,VALID,349,VALID,0.442578,
2009-01-27, 03:39:05,VALID,1001.79,VALID,0,VALID,94.6973,VALID,0,VALID,23.6275,VALID,348,VALID,0.560156,
2009-01-27, 03:40:05,VALID,1001.8,VALID,0,VALID,94.7354,VALID,0,VALID,23.6239,VALID,348,VALID,0.144531,
2009-01-27, 03:41:05,VALID,1001.76,VALID,0,VALID,94.7125,VALID,0,VALID,23.6239,VALID,348,VALID,0.0824219,
2009-01-27, 03:42:05,VALID,1001.78,VALID,0,VALID,94.7888,VALID,0,VALID,23.6823,VALID,357,VALID,0.748828,
2009-01-27, 03:43:05,VALID,1001.78,VALID,0,VALID,94.766,VALID,0.100563,VALID,23.7212,VALID,351,VALID,0.425781,
2009-01-27, 03:44:05,VALID,1001.74,VALID,0,VALID,94.682,VALID,0,VALID,23.7212,VALID,350,VALID,0,
2009-01-27, 03:45:05,VALID,1001.77,VALID,0,VALID,94.6668,VALID,0,VALID,23.7212,VALID,280,VALID,0.598047,
2009-01-27, 03:46:05,VALID,1001.76,VALID,0,VALID,94.7431,VALID,0,VALID,23.8009,VALID,2,VALID,0.757031,
2009-01-27, 03:47:05,VALID,1001.79,VALID,0,VALID,94.6134,VALID,0,VALID,23.8203,VALID,14,VALID,0.288281,